EW1095 Weather Reports


time (UTC)temp
C
wind
direction
speed
KPH
gust
KPH
rain 1hr
cm
rain 24hr
cm
rain mn
cm
humidity
%
barometer
mb
20260505140516 0 94 16.1 25.7 0.05 0.41 0.15 93 1014.2
20260505125017 1 78 16.1 24.1 0.08 0.36 0.10 93 1012.9
20260505124538 1 62 14.5 27.4 0.08 0.36 0.10 93 1012.9
20260505124015 1 97 19.3 27.4 0.08 0.36 0.10 92 1012.7
20260505123518 1 69 20.9 27.4 0.08 0.36 0.10 92 1012.6
20260505123033 1 57 16.1 25.7 0.05 0.33 0.08 93 1012.4
20260505122516 2 360 17.7 25.7 0.05 0.33 0.08 93 1012.7
20260505122017 2 360 19.3 25.7 0.05 0.33 0.08 93 1012.5
20260505121533 2 360 17.7 24.1 0.05 0.33 0.08 92 1012.6
20260505121019 2 88 14.5 20.9 0.05 0.33 0.08 93 1012.4
20260505120514 2 94 12.9 20.9 0.03 0.30 0.05 93 1012.5
20260505120155 3 98 16.1 20.9 0.03 0.30 0.05 92 1012.3
20260505020030 10 360 4.8 12.9 0.00 0.00 0.00 61 1011.3
20260505015514 10 360 6.4 22.5 0.00 0.00 0.00 62 1011.3
20260505015014 10 360 11.3 25.7 0.00 0.00 0.00 62 1011.2
20260505014532 10 360 17.7 27.4 0.00 0.00 0.00 61 1010.9
20260505014019 11 360 14.5 27.4 0.00 0.00 0.00 60 1010.9
20260505013515 11 360 17.7 27.4 0.00 0.00 0.00 56 1010.7
20260505013032 12 360 17.7 25.7 0.00 0.00 0.00 54 1011.0
20260505012514 12 360 17.7 29.0 0.00 0.00 0.00 52 1011.1
20260505012014 12 360 16.1 29.0 0.00 0.00 0.00 48 1011.0
20260505011533 12 360 20.9 29.0 0.00 0.00 0.00 47 1011.0
20260505011014 13 360 12.9 24.1 0.00 0.00 0.00 46 1010.6
20260505010517 13 360 11.3 24.1 0.00 0.00 0.00 46 1010.7
20260505010029 13 360 14.5 24.1 0.00 0.00 0.00 46 1010.6
20260505005517 13 360 14.5 24.1 0.00 0.00 0.00 45 1010.6
20260505005014 13 360 14.5 32.2 0.00 0.00 0.00 44 1010.5
20260505004531 13 360 17.7 32.2 0.00 0.00 0.00 44 1010.4
20260505004013 13 360 17.7 25.7 0.00 0.00 0.00 43 1010.3
20260505003518 14 360 17.7 25.7 0.00 0.00 0.00 41 1010.2
20260505003032 14 360 16.1 29.0 0.00 0.00 0.00 40 1010.3
20260505002515 15 360 17.7 29.0 0.00 0.00 0.00 39 1010.1
20260505002014 15 360 17.7 29.0 0.00 0.00 0.00 38 1010.0
20260505001530 15 360 16.1 27.4 0.00 0.00 0.00 37 1009.9
20260505001014 15 360 16.1 27.4 0.00 0.00 0.00 36 1009.9
20260505000514 15 360 12.9 27.4 0.00 0.00 0.00 36 1009.9
20260505000036 15 360 12.9 27.4 0.00 0.00 0.00 35 1009.9
20260504235514 15 360 17.7 27.4 0.00 0.00 0.00 35 1009.9
20260504235015 15 360 16.1 25.7 0.00 0.00 0.00 34 1009.9
20260504234534 15 360 16.1 25.7 0.00 0.00 0.00 34 1009.7
20260504234014 15 360 16.1 25.7 0.00 0.00 0.00 34 1009.9
20260504233514 15 360 16.1 25.7 0.00 0.00 0.00 34 1009.7
20260504233030 15 360 14.5 24.1 0.00 0.00 0.00 34 1009.7
20260504232515 15 360 12.9 27.4 0.00 0.00 0.00 34 1009.7
20260504232013 16 352 19.3 30.6 0.00 0.00 0.00 34 1009.7
20260504231536 16 34 16.1 38.6 0.00 0.00 0.00 34 1009.6
20260504231014 16 30 22.5 38.6 0.00 0.00 0.00 34 1009.4
20260504230513 16 42 20.9 38.6 0.00 0.00 0.00 34 1009.2
20260504230034 16 343 25.7 37.0 0.00 0.00 0.00 34 1009.2
20260504225518 16 35 22.5 37.0 0.00 0.00 0.00 34 1009.1
20260504225013 16 10 20.9 38.6 0.00 0.00 0.00 34 1009.3
20260504224529 16 360 25.7 38.6 0.00 0.00 0.00 33 1009.2
20260504224013 16 17 27.4 38.6 0.00 0.00 0.00 32 1009.3
20260504223514 16 360 20.9 35.4 0.00 0.00 0.00 32 1009.2
20260504223029 17 12 22.5 33.8 0.00 0.00 0.00 30 1009.1
20260504222513 17 26 19.3 35.4 0.00 0.00 0.00 30 1009.2
20260504222015 17 34 20.9 35.4 0.00 0.00 0.00 29 1008.9
20260504221530 18 24 19.3 29.0 0.00 0.00 0.00 26 1009.1
20260504221014 18 350 17.7 27.4 0.00 0.00 0.00 24 1008.8
20260504220518 18 12 16.1 27.4 0.00 0.00 0.00 25 1008.6
20260504220030 18 32 16.1 27.4 0.00 0.00 0.00 24 1008.6
20260504215514 18 13 17.7 27.4 0.00 0.00 0.00 24 1008.6
20260504215013 18 340 19.3 27.4 0.00 0.00 0.00 23 1008.5
20260504214530 19 349 16.1 27.4 0.00 0.00 0.00 23 1008.7
20260504214013 19 352 16.1 29.0 0.00 0.00 0.00 23 1008.6
20260504213513 18 5 17.7 32.2 0.00 0.00 0.00 24 1008.7
20260504213030 19 360 20.9 32.2 0.00 0.00 0.00 23 1008.9
20260504212511 20 352 19.3 29.0 0.00 0.00 0.00 23 1008.8
20260504212015 20 360 19.3 25.7 0.00 0.00 0.00 21 1008.8
20260504211530 20 350 12.9 29.0 0.00 0.00 0.00 22 1008.7
20260504211014 20 55 16.1 33.8 0.00 0.00 0.00 22 1008.9
20260504210514 20 352 16.1 33.8 0.00 0.00 0.00 23 1008.9
20260504210034 21 321 14.5 33.8 0.00 0.00 0.00 23 1008.9
20260504205514 20 360 16.1 27.4 0.00 0.00 0.00 21 1008.9
20260504205013 20 351 17.7 27.4 0.00 0.00 0.00 22 1009.0
20260504204533 20 325 12.9 27.4 0.00 0.00 0.00 21 1009.1
20260504204016 20 319 4.8 24.1 0.00 0.00 0.00 22 1009.1
20260504203514 20 319 9.7 20.9 0.00 0.00 0.00 22 1009.1
20260504203050 20 339 9.7 24.1 0.00 0.00 0.00 23 1009.1
20260504202514 20 360 16.1 24.1 0.00 0.00 0.00 21 1009.2
20260504202010 20 23 14.5 25.7 0.00 0.00 0.00 22 1009.1
20260504201532 20 15 9.7 35.4 0.00 0.00 0.00 22 1009.1
20260504201018 20 9 17.7 35.4 0.00 0.00 0.00 23 1009.1
20260504200513 20 42 11.3 24.1 0.00 0.00 0.00 23 1009.0
20260504200032 20 74 4.8 17.7 0.00 0.00 0.00 23 1009.1
20260504195513 20 360 8.0 16.1 0.00 0.00 0.00 23 1009.3
20260504195014 19 360 3.2 14.5 0.00 0.00 0.00 23 1009.4
20260504194533 18 360 4.8 29.0 0.00 0.00 0.00 24 1009.5
20260504194014 18 77 8.0 30.6 0.00 0.00 0.00 26 1009.6
20260504193514 17 59 16.1 30.6 0.00 0.00 0.00 26 1009.7
20260504193030 17 352 12.9 24.1 0.00 0.00 0.00 25 1009.9
20260504192511 17 261 14.5 33.8 0.00 0.00 0.00 25 1009.9
20260504192011 17 286 17.7 33.8 0.00 0.00 0.00 25 1009.7
20260504191530 17 281 12.9 38.6 0.00 0.00 0.00 24 1009.5
20260504191014 18 279 19.3 38.6 0.00 0.00 0.00 23 1009.3
20260504190514 18 294 20.9 35.4 0.00 0.00 0.00 22 1009.2
20260504190030 18 329 16.1 35.4 0.00 0.00 0.00 22 1009.2
20260504185511 18 360 14.5 35.4 0.00 0.00 0.00 22 1009.2
20260504185013 19 360 19.3 30.6 0.00 0.00 0.00 22 1009.3
20260504184533 19 30 16.1 22.5 0.00 0.00 0.00 22 1009.1
20260504184013 20 5 16.1 24.1 0.00 0.00 0.00 22 1009.2
20260504183515 20 322 17.7 24.1 0.00 0.00 0.00 22 1009.3
20260504183034 20 352 9.7 22.5 0.00 0.00 0.00 22 1009.3
20260504182523 20 352 8.0 14.5 0.00 0.00 0.00 22 1009.5
20260504182017 20 348 9.7 19.3 0.00 0.00 0.00 22 1009.4
20260504181528 20 306 9.7 19.3 0.00 0.00 0.00 21 1009.4
20260504181011 20 307 11.3 19.3 0.00 0.00 0.00 19 1009.6
20260504180514 20 9 3.2 17.7 0.00 0.00 0.00 21 1009.6
20260504180033 20 327 4.8 22.5 0.00 0.00 0.00 21 1009.6
20260504175513 20 20 9.7 22.5 0.00 0.00 0.00 21 1009.7
20260504175014 20 273 9.7 17.7 0.00 0.00 0.00 20 1009.8
20260504174532 20 252 9.7 17.7 0.00 0.00 0.00 22 1009.9
20260504174014 20 310 8.0 19.3 0.00 0.00 0.00 23 1010.0
20260504173513 20 240 8.0 22.5 0.00 0.00 0.00 22 1010.1
20260504173032 20 317 8.0 22.5 0.00 0.00 0.00 23 1010.1
20260504172513 20 336 11.3 19.3 0.00 0.00 0.00 21 1010.2
20260504172010 20 294 11.3 19.3 0.00 0.00 0.00 24 1010.2
20260504171532 19 311 14.5 19.3 0.00 0.00 0.00 23 1010.2
20260504171014 19 309 6.4 27.4 0.00 0.00 0.00 23 1010.2
20260504170511 19 314 16.1 27.4 0.00 0.00 0.00 24 1010.3
20260504151017 17 276 14.5 24.1 0.00 0.00 0.00 26 1010.9
20260504150516 16 276 14.5 24.1 0.00 0.00 0.00 28 1011.0